• In Moldova, Republic
  • List of Countries
  • For 7 days
  • Water Temperature
  • Satellite Maps
  • Weather Map
  • Weather Widgets
  • user-avatar
    Login

    Hourly Weather Ganja

    Today, 17 October, Tuesday

    Time Temperature Precipitation Wind Pressure Humidity
    00:00 +10°C° 0 mm 4 mps 725 mmHg 60%
    01:00 +10°C° 0 mm 4 mps 725 mmHg 60%
    02:00 +9°C° 0 mm 3 mps 725 mmHg 61%
    03:00 +9°C° 0 mm 3 mps 724 mmHg 61%
    04:00 +9°C° 0 mm 2 mps 725 mmHg 61%
    05:00 +9°C° 0 mm 2 mps 725 mmHg 62%
    06:00 +9°C° 0 mm 2 mps 726 mmHg 63%
    07:00 +11°C° 0 mm 4 mps 726 mmHg 57%
    08:00 +12°C° 0 mm 5 mps 727 mmHg 51%
    09:00 +12°C° 0 mm 7 mps 727 mmHg 45%
    10:00 +14°C° 0 mm 7 mps 727 mmHg 42%
    11:00 +15°C° 0 mm 8 mps 726 mmHg 40%
    12:00 +16°C° 0 mm 8 mps 726 mmHg 37%
    13:00 +17°C° 0 mm 8 mps 726 mmHg 37%
    14:00 +17°C° 0 mm 8 mps 726 mmHg 37%
    15:00 +17°C° 0 mm 8 mps 726 mmHg 36%
    16:00 +16°C° 0 mm 6 mps 726 mmHg 42%
    17:00 +15°C° 0 mm 5 mps 727 mmHg 47%
    18:00 +13°C° 0 mm 4 mps 727 mmHg 52%
    19:00 +13°C° 0 mm 4 mps 727 mmHg 53%
    20:00 +13°C° 0 mm 4 mps 728 mmHg 54%
    21:00 +12°C° 0 mm 4 mps 728 mmHg 56%
    22:00 +12°C° 0 mm 4 mps 728 mmHg 56%
    23:00 +12°C° 0 mm 3 mps 728 mmHg 57%

    Tomorrow, 18 October, Wednesday

    Time Temperature Precipitation Wind Pressure Humidity
    00:00 +12°C° 0 mm 3 mps 728 mmHg 57%
    01:00 +12°C° 0 mm 3 mps 728 mmHg 57%
    02:00 +12°C° 0 mm 2 mps 728 mmHg 58%
    03:00 +12°C° 0 mm 2 mps 728 mmHg 58%
    04:00 +12°C° 0 mm 2 mps 728 mmHg 59%
    05:00 +12°C° 0 mm 1 mps 728 mmHg 60%
    06:00 +12°C° 0 mm 1 mps 728 mmHg 60%
    07:00 +13°C° 0 mm 1 mps 729 mmHg 56%
    08:00 +15°C° 0 mm 1 mps 729 mmHg 51%
    09:00 +18°C° 0 mm 1 mps 730 mmHg 47%
    10:00 +17°C° 0 mm 2 mps 730 mmHg 45%
    11:00 +18°C° 0 mm 2 mps 730 mmHg 43%
    12:00 +19°C° 0 mm 2 mps 730 mmHg 42%
    13:00 +20°C° 0 mm 2 mps 730 mmHg 42%
    14:00 +20°C° 0 mm 3 mps 730 mmHg 41%
    15:00 +20°C° 0 mm 3 mps 729 mmHg 41%
    16:00 +19°C° 0 mm 3 mps 730 mmHg 46%
    17:00 +18°C° 0 mm 3 mps 730 mmHg 50%
    18:00 +16°C° 0 mm 2 mps 730 mmHg 55%
    19:00 +16°C° 0 mm 2 mps 731 mmHg 57%
    20:00 +15°C° 0 mm 2 mps 731 mmHg 59%
    21:00 +15°C° 0 mm 2 mps 731 mmHg 62%
    22:00 +14°C° 0 mm 2 mps 731 mmHg 64%
    23:00 +14°C° 0 mm 2 mps 731 mmHg 67%

    Day after tomorrow, 19 October, Thursday

    Time Temperature Precipitation Wind Pressure Humidity
    00:00 +13°C° 0 mm 2 mps 731 mmHg 70%
    01:00 +13°C° 0 mm 2 mps 731 mmHg 73%
    02:00 +13°C° 0 mm 1 mps 731 mmHg 75%
    03:00 +12°C° 0 mm 1 mps 731 mmHg 78%
    04:00 +12°C° 0 mm 1 mps 731 mmHg 79%
    05:00 +11°C° 0 mm 0 mps 731 mmHg 80%
    06:00 +11°C° 0 mm 0 mps 731 mmHg 82%
    07:00 +13°C° 0 mm 1 mps 731 mmHg 77%
    08:00 +14°C° 0 mm 1 mps 731 mmHg 73%
    09:00 +15°C° 0 mm 1 mps 731 mmHg 68%
    10:00 +16°C° 0 mm 1 mps 731 mmHg 65%
    11:00 +18°C° 0 mm 1 mps 730 mmHg 62%
    12:00 +18°C° 0 mm 2 mps 730 mmHg 59%
    13:00 +19°C° 0 mm 1 mps 729 mmHg 59%
    14:00 +20°C° 0 mm 1 mps 729 mmHg 58%
    15:00 +20°C° 0 mm 1 mps 729 mmHg 58%
    16:00 +19°C° 0 mm 1 mps 729 mmHg 63%
    17:00 +18°C° 0 mm 1 mps 729 mmHg 68%
    18:00 +16°C° 0 mm 1 mps 729 mmHg 73%
    19:00 +14°C° 0 mm 0 mps 729 mmHg 74%
    20:00 +14°C° 0 mm 0 mps 729 mmHg 75%
    21:00 +14°C° 0 mm 0 mps 729 mmHg 76%
    22:00 +13°C° 0 mm 0 mps 729 mmHg 77%
    23:00 +13°C° 0 mm 0 mps 729 mmHg 78%

    20 October, Friday

    Time Temperature Precipitation Wind Pressure Humidity
    00:00 +14°C° 0 mm 1 mps 728 mmHg 78%
    01:00 +14°C° 0 mm 1 mps 728 mmHg 77%
    02:00 +14°C° 0 mm 1 mps 728 mmHg 76%
    03:00 +13°C° 0 mm 1 mps 728 mmHg 75%
    04:00 +13°C° 0 mm 2 mps 728 mmHg 74%
    05:00 +13°C° 0 mm 2 mps 728 mmHg 72%
    06:00 +13°C° 0 mm 2 mps 727 mmHg 71%
    07:00 +15°C° 0 mm 2 mps 727 mmHg 64%
    08:00 +16°C° 0 mm 2 mps 728 mmHg 58%
    09:00 +19°C° 0 mm 1 mps 728 mmHg 52%
    10:00 +19°C° 0 mm 2 mps 727 mmHg 49%
    11:00 +20°C° 0 mm 2 mps 727 mmHg 46%
    12:00 +21°C° 0 mm 2 mps 727 mmHg 43%
    13:00 +21°C° 0 mm 2 mps 726 mmHg 42%
    14:00 +22°C° 0 mm 1 mps 726 mmHg 41%
    15:00 +22°C° 0 mm 1 mps 726 mmHg 40%
    16:00 +21°C° 0 mm 1 mps 726 mmHg 45%
    17:00 +20°C° 0 mm 1 mps 726 mmHg 50%
    18:00 +17°C° 0 mm 0 mps 727 mmHg 55%
    19:00 +18°C° 0 mm 1 mps 727 mmHg 56%
    20:00 +18°C° 0 mm 1 mps 727 mmHg 57%
    21:00 +16°C° 0 mm 1 mps 727 mmHg 58%
    22:00 +16°C° 0 mm 1 mps 727 mmHg 59%
    23:00 +16°C° 0 mm 1 mps 727 mmHg 59%

    21 October, Saturday

    Time Temperature Precipitation Wind Pressure Humidity
    00:00 +15°C° 0 mm 1 mps 727 mmHg 60%
    01:00 +15°C° 0 mm 1 mps 727 mmHg 60%
    02:00 +15°C° 0 mm 1 mps 727 mmHg 60%
    03:00 +14°C° 0 mm 1 mps 727 mmHg 59%
    04:00 +14°C° 0 mm 2 mps 727 mmHg 59%
    05:00 +14°C° 0 mm 2 mps 727 mmHg 58%
    06:00 +14°C° 0 mm 2 mps 727 mmHg 57%
    07:00 +15°C° 0 mm 1 mps 728 mmHg 52%
    08:00 +18°C° 0 mm 1 mps 728 mmHg 47%
    09:00 +20°C° 0 mm 1 mps 728 mmHg 42%
    10:00 +21°C° 0 mm 1 mps 728 mmHg 40%
    11:00 +21°C° 0 mm 1 mps 728 mmHg 38%
    12:00 +22°C° 0 mm 1 mps 727 mmHg 36%
    13:00 +22°C° 0 mm 1 mps 727 mmHg 36%
    14:00 +23°C° 0 mm 2 mps 727 mmHg 36%
    15:00 +23°C° 0 mm 2 mps 727 mmHg 36%
    16:00 +21°C° 0 mm 2 mps 727 mmHg 40%
    17:00 +19°C° 0 mm 2 mps 727 mmHg 45%
    18:00 +18°C° 0 mm 2 mps 728 mmHg 49%
    19:00 +17°C° 0 mm 2 mps 728 mmHg 51%
    20:00 +17°C° 0 mm 2 mps 728 mmHg 54%
    21:00 +16°C° 0 mm 2 mps 728 mmHg 56%
    22:00 +16°C° 0 mm 1 mps 728 mmHg 58%
    23:00 +15°C° 0 mm 1 mps 728 mmHg 60%

    22 October, Sunday

    Time Temperature Precipitation Wind Pressure Humidity
    00:00 +15°C° 0 mm 1 mps 728 mmHg 62%
    01:00 +14°C° 0 mm 1 mps 727 mmHg 63%
    02:00 +14°C° 0 mm 1 mps 727 mmHg 64%
    03:00 +14°C° 0 mm 1 mps 727 mmHg 65%
    04:00 +13°C° 0 mm 1 mps 727 mmHg 64%
    05:00 +13°C° 0 mm 1 mps 727 mmHg 63%
    06:00 +13°C° 0 mm 1 mps 727 mmHg 62%
    07:00 +14°C° 0 mm 1 mps 727 mmHg 56%
    08:00 +16°C° 0 mm 1 mps 726 mmHg 51%
    09:00 +18°C° 0 mm 1 mps 726 mmHg 45%
    10:00 +18°C° 0 mm 2 mps 726 mmHg 43%
    11:00 +19°C° 0 mm 2 mps 725 mmHg 42%
    12:00 +20°C° 0 mm 2 mps 724 mmHg 40%
    13:00 +20°C° 0 mm 2 mps 724 mmHg 40%
    14:00 +20°C° 0 mm 2 mps 723 mmHg 40%
    15:00 +21°C° 0 mm 2 mps 723 mmHg 40%
    16:00 +19°C° 0 mm 2 mps 723 mmHg 45%
    17:00 +19°C° 0 mm 1 mps 723 mmHg 49%
    18:00 +18°C° 0 mm 1 mps 723 mmHg 53%
    19:00 +17°C° 0 mm 2 mps 723 mmHg 53%
    20:00 +16°C° 0 mm 2 mps 723 mmHg 53%
    21:00 +16°C° 0 mm 2 mps 723 mmHg 53%
    22:00 +16°C° 0 mm 2 mps 723 mmHg 52%
    23:00 +14°C° 0 mm 3 mps 723 mmHg 51%
    Show more